Weather Roundup
Issued by NWS

Home | Current Version | Previous Version | Text Only | Print | Product List | Glossary On
Versions: 1 2 3 4 5 6 7 8 9 10 11 12 13 14 15 16 17 18 19 20 21 22 23 24 25 26 27 28 29 30 31 32 33 34 35 36 37 38 39 40 41 42 43 44 45 46 47 48 49 50
000
NZUS93 KARX 230110
HRRWXR

CURRENT HOURLY OBSERVATIONS ACROSS
MUCH OF THE UPPER MISSISSIPPI VALLEY
NATIONAL WEATHER SERVICE LA CROSSE WI
800 PM CDT SAT JUL 22 2017


...SOUTHEAST MINNESOTA...


CITY           SKY/WX    TMP DP  RH WIND       PRES   REMARKS
ROCHESTER      MOCLDY    80  70  71 N6        29.84S
ROCHESTER/MAYO FAIR      79  71  75 W6        29.83S
WINONA         CLEAR     81  70  69 SW3       29.79S
AUSTIN         PTCLDY    79  70  73 SW3       29.85R
ALBERT LEA     CLOUDY    81  70  69 NW6       29.85R
DODGE CENTER   CLEAR     81  72  74 W6        29.85R
PRESTON        PTCLDY    77  70  78 W6        29.84S
OWATONNA       LGT RAIN  81  72  74 W5        29.84S
FARIBAULT      CLEAR     82  70  65 W5        29.84R
$$

...ELSEWHERE IN MINNESOTA...


CITY           SKY/WX    TMP DP  RH WIND       PRES   REMARKS
MINNEAPOLIS    PTCLDY    85  63  47 NW9       29.82R
INTNL FALLS    CLEAR     70  56  61 NW9       29.79R
DULUTH         PTCLDY    60  56  86 SE8       29.82R
RED WING       PTCLDY    79  70  73 CALM      29.79S
REDWOOD FALLS  CLEAR     82  68  62 CALM      29.85S
MANKATO        CLEAR     82  71  69 W6        29.85S
WORTHINGTON    CLEAR     80  70  71 W7        29.91S
FAIRMONT       CLEAR     81  71  71 NW8       29.87S
$$

...SOUTHWEST WISCONSIN...


CITY           SKY/WX    TMP DP  RH WIND       PRES   REMARKS
LA CROSSE      CLEAR     83  73  72 S8        29.79S
PRAIRIE DU CHI PTCLDY    81  72  74 CALM      29.81S
BOSCOBEL       CLEAR     80  74  81 W3        29.82R
LONE ROCK      CLEAR     80  72  76 CALM      29.80F
PLATTEVILLE    CLEAR     80  78  92 W3        29.83S
FORT MC COY    CLEAR     78  71  78 CALM      29.81F
MAUSTON-NEW LI PTCLDY    81  73  77 CALM      29.80S
VIROQUA        FAIR      77  73  88 CALM      29.84F
WIS DELLS      CLEAR     77  69  75 SW3       29.81S
$$

...ELSEWHERE IN WISCONSIN...


CITY           SKY/WX    TMP DP  RH WIND       PRES   REMARKS
MILWAUKEE      MOCLDY    73  68  84 E3        29.81R
MADISON        MOCLDY    78  72  81 CALM      29.81R
GREEN BAY      CLEAR     77  71  82 S10       29.78R
EAU CLAIRE     MOCLDY    74  68  81 SW3       29.80R
BLACK RVR FLS  FAIR      79  70  73 CALM      29.79F
MEDFORD        MOCLDY    78  68  70 W6        29.81S
WAUSAU         MOCLDY    80  67  64 W10       29.77S
WIS RAPIDS     MOCLDY    80  71  74 SW3       29.80S
MARSHFIELD     PTCLDY    80  67  64 W6        29.79F
RICE LAKE      CLEAR     80  65  59 W5        29.82S
$$

...NORTHEAST IOWA...


CITY           SKY/WX    TMP DP  RH WIND       PRES   REMARKS
WATERLOO       CLOUDY    80  72  76 CALM      29.82S
DUBUQUE        MOCLDY    79  74  84 CALM      29.83F
DECORAH        CLEAR     79  73  83 CALM      29.82F
MASON CITY     CLEAR     82  74  76 NW5       29.86F
CHARLES CITY   PTCLDY    79  77  94 NW5       29.84F
OELWEIN          N/A    N/A N/A N/A MISG        N/A
$$

...ELSEWHERE IN IOWA...


CITY           SKY/WX    TMP DP  RH WIND       PRES   REMARKS
DES MOINES     CLOUDY    84  73  69 N5        29.85S HX  90
IOWA CITY      CLOUDY    83  74  74 NW8       29.83S
FORT DODGE     CLOUDY    82  73  74 NW6       29.87R
MARSHALLTOWN   CLOUDY    81  75  82 CALM      29.85R
CEDAR RAPIDS   CLEAR     78  77  96 NW5       29.82F
$$

...NORTHERN ILLINOIS...


CITY           SKY/WX    TMP DP  RH WIND       PRES   REMARKS
CHICAGO-OHARE  PTCLDY    81  69  67 E8        29.80R
CHICAGO-MIDWAY MOCLDY    81  69  67 E6        29.80R
MOLINE         CLOUDY    83  73  72 NW3       29.81R
ROCKFORD       PTCLDY    83  72  69 W6        29.82S
PEORIA         CLEAR     83  79  88 N3        29.79R HX  94
$$

NOTE: "FAIR" INDICATES FEW OR NO CLOUDS BELOW 12,000 FEET WITH NO
SIGNIFICANT WEATHER AND/OR OBSTRUCTIONS TO VISIBILITY. WIND
SPEEDS ARE IN MILES-PER-HOUR.




USA.gov is the U.S. government's official web portal to all federal, state and local government web resources and services.